Location: Burbank
(38.7788°N, 114.0429°W)
Time: 20:53:47
(UTC+00:00)

S-56A Canister/Altair - Pass Details

Date: 13 May 2026
Orbit: 632 x 2484 km, 38.9° (Epoch: 8 June)

Event Time Altitude Azimuth Distance (km) Brightness Sun altitude
Rises 11:38:05 0° 272° (W) 3,774 - -9.0°
Exits shadow 11:40:46 - 257° (WSW) 3,216 10.1 -8.5°
Reaches altitude 10° 11:41:30 10° 252° (WSW) 3,106 10.0 -8.4°
Maximum altitude 11:46:18 17° 214° (SW) 2,963 10.0 -7.6°
Drops below altitude 10° 11:52:14 10° 178° (S) 3,986 10.9 -6.6°
Sets 11:57:37 0° 161° (SSE) 5,361 11.7 -5.7°
